Flag for Norway Weather past 2 weeks in Kleppe, Norway

Now
55 °F

Sunny.


Feels Like: 55 °F
Forecast: 55 / 61 °F
Wind: 1 mph from Northeast

Location: Stavanger / Sola

Current Time: Aug 31, 2014 at 8:58:17 AM

Latest Report: Aug 31, 2014 at 8:00 AM


Visibility: 19 mi

Pressure: 29.92 "Hg

Humidity: 97%

Dew point: 54 °F

Location of KleppeLocation

Historic Weather in Kleppe — Graph

°F

Kleppe temperature yesterday

Maximum temperature yesterday: 63 °F (at 11:00 AM)
Minimum temperature yesterday: 57 °F (at 11:00 PM)
Average temperature yesterday: 60 °F

Past Weeks' High & Low Weather Summary

 TemperatureHumidityPressure
High66 °F (Aug 29, 4:00 PM)98% (Aug 27, 6:00 AM)29.99 "Hg (Aug 27, 6:00 AM)
Low48 °F (Aug 22, 6:00 AM)58% (Aug 28, 5:00 PM)29.21 "Hg (Aug 18, 9:00 AM)
Average56 °F82%29.68 "Hg
* Reported Aug 16 7:00 AM — Aug 31 7:00 AM, Kleppe, Weather by CustomWeather, © 2014

Note: Actual official high and low records may vary slightly from our data, if they occured in-between our weather recording intervals... More about our weather records

Advertising

Kleppe weather history for previous 24 hours

 ConditionsComfort  
Time TempWeatherWind HumidityBarometerVisibility
7:00 AM
Aug 31
50 °FSunny.2 mph97%29.90 "Hg6 mi
6:00 AM51 °FFog.1 mph96%29.89 "Hg1 mi
5:00 AM53 °FPassing clouds.1 mph95%29.88 "Hg19 mi
4:00 AM52 °FPassing clouds.1 mph93%29.87 "Hg28 mi
3:00 AM53 °FClear.2 mph94%29.85 "Hg31 mi
2:00 AM54 °FPassing clouds.1 mph93%29.85 "Hg31 mi
1:00 AM56 °FOvercast.2 mph92%29.84 "Hg31 mi
12:00 AM56 °FPassing clouds.1 mph90%29.83 "Hg31 mi
11:00 PM
Aug 30
57 °FPassing clouds.No wind88%29.81 "Hg31 mi
10:00 PM57 °FOvercast.1 mph89%29.80 "Hg31 mi
9:00 PM59 °FOvercast.No wind86%29.78 "Hg31 mi
8:00 PM61 °FPartly sunny.No wind82%29.77 "Hg31 mi
7:00 PM62 °FPassing clouds.2 mph75%29.77 "Hg31 mi
6:00 PM61 °FPartly sunny.3 mph78%29.77 "Hg28 mi
5:00 PM61 °FScattered clouds.6 mph80%29.77 "Hg28 mi
4:00 PM60 °FOvercast.5 mph83%29.77 "Hg31 mi
3:00 PM60 °FRain showers. Scattered clouds.2 mph82%29.75 "Hg12 mi
2:00 PM60 °FRain. Partly sunny.No wind82%29.74 "Hg9 mi
1:00 PM60 °FLight rain. Partly sunny.5 mph78%29.74 "Hg11 mi
12:00 PM61 °FLight rain. Haze.3 mph74%29.74 "Hg10 mi
11:00 AM63 °FPartly sunny.5 mph65%29.74 "Hg28 mi
10:00 AM63 °FPassing clouds.5 mph67%29.75 "Hg25 mi
9:00 AM61 °FSunny.6 mph69%29.75 "Hg22 mi
8:00 AM60 °FPassing clouds.5 mph71%29.76 "Hg25 mi
Weather by CustomWeather, © 2014

See weather overviewHow to use our weather pages